EJA284 KFRG-KTEB

Flight info

Callsign EJA284
Flight time 0h 36m
Altitude 16000
Route JFK T224 DIXIE T438 RBV V249 SBJ/N0403F150
Aircraft C700/M-SBDGHM1RWXY/LB2

Departure

Time 2026-05-05 22:44
Airport Republic Airport (KFRG)

Arrival

Time 2026-05-05 23:21
Airport Teterboro Airport (KTEB)
Time Latitude Longitude Altitude Speed Heading
2026-05-05 22:24 40.72917 -73.42111 75 ft 0 kts 174°
2026-05-05 22:36 40.72931 -73.42113 64 ft 3 kts 169°
2026-05-05 22:36 40.72947 -73.42123 71 ft 3 kts 131°
2026-05-05 22:37 40.72955 -73.42141 77 ft 0 kts 95°
2026-05-05 22:39 40.72955 -73.42137 69 ft 3 kts 94°
2026-05-05 22:39 40.72958 -73.42068 74 ft 9 kts 86°
2026-05-05 22:39 40.72959 -73.41985 75 ft 8 kts 86°
2026-05-05 22:39 40.72973 -73.41933 74 ft 5 kts 45°
2026-05-05 22:40 40.73006 -73.41890 70 ft 7 kts 44°
2026-05-05 22:40 40.73055 -73.41837 72 ft 10 kts 23°
2026-05-05 22:40 40.73114 -73.41876 77 ft 11 kts 315°
2026-05-05 22:40 40.73157 -73.41946 85 ft 7 kts 319°
2026-05-05 22:41 40.73202 -73.41925 79 ft 10 kts 44°
2026-05-05 22:41 40.73271 -73.41849 78 ft 15 kts 36°
2026-05-05 22:41 40.73374 -73.41776 79 ft 18 kts 31°
2026-05-05 22:41 40.73488 -73.41685 73 ft 19 kts 28°
2026-05-05 22:42 40.73612 -73.41591 84 ft 14 kts 28°
2026-05-05 22:42 40.73668 -73.41566 82 ft 12 kts
2026-05-05 22:42 40.73749 -73.41541 84 ft 12 kts 27°
2026-05-05 22:42 40.73793 -73.41493 84 ft 8 kts 82°
2026-05-05 22:43 40.73755 -73.41456 85 ft 7 kts 179°
2026-05-05 22:43 40.73751 -73.41456 84 ft 0 kts 177°
2026-05-05 22:43 40.73665 -73.41456 82 ft 46 kts 179°
2026-05-05 22:43 40.73007 -73.41437 102 ft 137 kts 184°
2026-05-05 22:44 40.71876 -73.41450 547 ft 189 kts 185°
2026-05-05 22:44 40.70594 -73.41492 1475 ft 186 kts 181°
2026-05-05 22:44 40.69172 -73.41292 2017 ft 230 kts 178°
2026-05-05 22:44 40.67572 -73.41004 2023 ft 232 kts 177°
2026-05-05 22:45 40.65944 -73.40722 2026 ft 240 kts 177°
2026-05-05 22:45 40.64306 -73.40921 2016 ft 237 kts 203°
2026-05-05 22:45 40.63050 -73.42227 2014 ft 231 kts 234°
2026-05-05 22:45 40.62483 -73.44227 2092 ft 238 kts 255°
2026-05-05 22:46 40.62189 -73.46373 2646 ft 239 kts 257°
2026-05-05 22:46 40.61582 -73.48351 3682 ft 240 kts 232°
2026-05-05 22:46 40.60345 -73.49925 4009 ft 245 kts 223°
2026-05-05 22:46 40.59078 -73.51368 4019 ft 241 kts 223°
2026-05-05 22:47 40.57879 -73.52874 4017 ft 242 kts 227°
2026-05-05 22:47 40.56699 -73.54493 4019 ft 247 kts 227°
2026-05-05 22:47 40.55512 -73.56098 4010 ft 242 kts 227°
2026-05-05 22:47 40.54336 -73.57665 4014 ft 240 kts 227°
2026-05-05 22:48 40.53158 -73.59237 4015 ft 242 kts 227°
2026-05-05 22:48 40.51975 -73.60819 4011 ft 242 kts 227°
2026-05-05 22:48 40.50794 -73.62397 4014 ft 242 kts 227°
2026-05-05 22:48 40.49613 -73.63972 4014 ft 242 kts 227°
2026-05-05 22:49 40.48436 -73.65542 4016 ft 241 kts 227°
2026-05-05 22:49 40.47259 -73.67113 4017 ft 241 kts 227°
2026-05-05 22:49 40.46098 -73.68659 4015 ft 241 kts 227°
2026-05-05 22:49 40.44918 -73.70231 4019 ft 242 kts 227°
2026-05-05 22:50 40.43733 -73.71808 4015 ft 242 kts 227°
2026-05-05 22:50 40.42546 -73.73386 4018 ft 245 kts 227°
2026-05-05 22:50 40.41349 -73.74979 4017 ft 244 kts 227°
2026-05-05 22:50 40.40159 -73.76561 4015 ft 244 kts 227°
2026-05-05 22:51 40.38964 -73.78148 4019 ft 245 kts 227°
2026-05-05 22:51 40.37769 -73.79734 4018 ft 245 kts 227°
2026-05-05 22:51 40.36570 -73.81326 4021 ft 245 kts 226°
2026-05-05 22:51 40.35372 -73.82915 4026 ft 245 kts 227°
2026-05-05 22:52 40.34191 -73.84480 4030 ft 245 kts 227°
2026-05-05 22:52 40.32988 -73.86073 4029 ft 246 kts 227°
2026-05-05 22:52 40.31788 -73.87661 4026 ft 245 kts 227°
2026-05-05 22:52 40.30587 -73.89253 4029 ft 245 kts 227°
2026-05-05 22:53 40.29390 -73.90834 4027 ft 244 kts 226°
2026-05-05 22:53 40.28194 -73.92418 4025 ft 245 kts 227°
2026-05-05 22:53 40.26993 -73.94004 4023 ft 245 kts 226°
2026-05-05 22:53 40.25791 -73.95590 4028 ft 246 kts 227°
2026-05-05 22:54 40.24602 -73.97160 4025 ft 246 kts 227°
2026-05-05 22:54 40.23399 -73.98746 4021 ft 245 kts 227°
2026-05-05 22:54 40.22200 -74.00327 4025 ft 245 kts 227°
2026-05-05 22:54 40.20995 -74.01917 4021 ft 245 kts 226°
2026-05-05 22:55 40.19796 -74.03495 4021 ft 245 kts 226°
2026-05-05 22:55 40.18595 -74.05075 4018 ft 245 kts 226°
2026-05-05 22:55 40.17396 -74.06650 4020 ft 245 kts 226°
2026-05-05 22:55 40.16193 -74.08236 4020 ft 245 kts 226°
2026-05-05 22:56 40.15007 -74.09793 4020 ft 246 kts 226°
2026-05-05 22:56 40.13796 -74.11378 4014 ft 247 kts 226°
2026-05-05 22:56 40.12593 -74.12975 4018 ft 247 kts 226°
2026-05-05 22:56 40.11392 -74.14576 4015 ft 246 kts 230°
2026-05-05 22:57 40.10667 -74.16578 4007 ft 249 kts 257°
2026-05-05 22:57 40.10706 -74.18839 4006 ft 254 kts 282°
2026-05-05 22:57 40.11348 -74.20993 4010 ft 255 kts 289°
2026-05-05 22:57 40.12028 -74.23132 4016 ft 255 kts 289°
2026-05-05 22:58 40.12699 -74.25274 4019 ft 255 kts 289°
2026-05-05 22:58 40.13362 -74.27388 4018 ft 255 kts 289°
2026-05-05 22:58 40.14034 -74.29541 4024 ft 256 kts 289°
2026-05-05 22:58 40.14706 -74.31698 4027 ft 257 kts 289°
2026-05-05 22:59 40.15382 -74.33860 4023 ft 257 kts 289°
2026-05-05 22:59 40.16056 -74.36023 4016 ft 256 kts 289°
2026-05-05 22:59 40.16722 -74.38173 4013 ft 255 kts 288°
2026-05-05 22:59 40.17394 -74.40327 4011 ft 256 kts 289°
2026-05-05 23:00 40.18740 -74.44662 3999 ft 259 kts 289°
2026-05-05 23:00 40.19408 -74.46810 4001 ft 258 kts 289°
2026-05-05 23:00 40.20185 -74.48917 3989 ft 260 kts 300°
2026-05-05 23:01 40.21359 -74.50719 3984 ft 263 kts 313°
2026-05-05 23:01 40.22776 -74.52261 3988 ft 266 kts 316°
2026-05-05 23:01 40.24199 -74.53818 3978 ft 266 kts 316°
2026-05-05 23:01 40.25610 -74.55376 3984 ft 266 kts 316°
2026-05-05 23:02 40.27032 -74.56927 3979 ft 266 kts 316°
2026-05-05 23:02 40.28458 -74.58489 3984 ft 269 kts 316°
2026-05-05 23:02 40.29875 -74.60042 3987 ft 272 kts 316°
2026-05-05 23:02 40.31403 -74.61682 3991 ft 294 kts 320°
2026-05-05 23:03 40.33251 -74.62921 3993 ft 305 kts 336°
2026-05-05 23:03 40.35283 -74.63816 3992 ft 308 kts 338°
2026-05-05 23:03 40.37297 -74.64713 3996 ft 305 kts 337°
2026-05-05 23:03 40.39306 -74.65619 3992 ft 305 kts 338°
2026-05-05 23:04 40.41314 -74.66524 3989 ft 306 kts 337°
2026-05-05 23:04 40.43333 -74.67428 3989 ft 306 kts 337°
2026-05-05 23:04 40.45321 -74.68322 3970 ft 306 kts 338°
2026-05-05 23:04 40.47335 -74.69230 3968 ft 306 kts 337°
2026-05-05 23:05 40.49374 -74.70057 3959 ft 309 kts 347°
2026-05-05 23:05 40.51521 -74.69792 3955 ft 317 kts 16°
2026-05-05 23:05 40.53508 -74.68545 3962 ft 317 kts 28°
2026-05-05 23:05 40.55407 -74.67087 3959 ft 316 kts 33°
2026-05-05 23:06 40.56989 -74.65156 3958 ft 303 kts 49°
2026-05-05 23:06 40.58286 -74.63085 3955 ft 286 kts 50°
2026-05-05 23:06 40.59630 -74.61184 3952 ft 284 kts 44°
2026-05-05 23:06 40.61074 -74.59411 3950 ft 285 kts 42°
2026-05-05 23:07 40.62505 -74.57612 3947 ft 284 kts 44°
2026-05-05 23:07 40.63911 -74.55771 3959 ft 286 kts 44°
2026-05-05 23:07 40.65325 -74.53925 3962 ft 287 kts 44°
2026-05-05 23:07 40.66735 -74.52110 3957 ft 286 kts 44°
2026-05-05 23:08 40.68158 -74.50270 3952 ft 288 kts 45°
2026-05-05 23:08 40.69585 -74.48415 3969 ft 287 kts 44°
2026-05-05 23:08 40.71010 -74.46564 3971 ft 288 kts 44°
2026-05-05 23:08 40.72435 -74.44723 3967 ft 287 kts 43°
2026-05-05 23:09 40.73863 -74.42870 3970 ft 289 kts 44°
2026-05-05 23:09 40.75293 -74.41007 3973 ft 289 kts 44°
2026-05-05 23:09 40.76721 -74.39150 3971 ft 287 kts 44°
2026-05-05 23:09 40.78145 -74.37297 3971 ft 287 kts 44°
2026-05-05 23:10 40.79537 -74.35482 3960 ft 286 kts 44°
2026-05-05 23:10 40.80964 -74.33626 3971 ft 288 kts 44°
2026-05-05 23:10 40.82385 -74.31778 3975 ft 286 kts 44°
2026-05-05 23:10 40.83800 -74.29933 3978 ft 285 kts 44°
2026-05-05 23:11 40.85207 -74.28098 3969 ft 286 kts 44°
2026-05-05 23:11 40.86631 -74.26231 3960 ft 288 kts 44°
2026-05-05 23:11 40.88046 -74.24380 3964 ft 285 kts 44°
2026-05-05 23:11 40.89466 -74.22529 3968 ft 287 kts 44°
2026-05-05 23:12 40.90887 -74.20672 3973 ft 288 kts 44°
2026-05-05 23:12 40.92312 -74.18803 3966 ft 288 kts 44°
2026-05-05 23:12 40.93716 -74.16963 3963 ft 286 kts 44°
2026-05-05 23:12 40.95083 -74.15170 3953 ft 267 kts 44°
2026-05-05 23:13 40.96362 -74.13492 3942 ft 251 kts 44°
2026-05-05 23:13 40.97575 -74.11903 3937 ft 242 kts 43°
2026-05-05 23:13 40.98770 -74.10333 3935 ft 243 kts 43°
2026-05-05 23:13 40.99977 -74.08747 3948 ft 246 kts 44°
2026-05-05 23:14 41.01160 -74.07158 3933 ft 235 kts 47°
2026-05-05 23:14 41.01953 -74.05369 3932 ft 217 kts 70°
2026-05-05 23:14 41.02322 -74.03518 3930 ft 201 kts 85°
2026-05-05 23:14 41.02315 -74.01724 3938 ft 192 kts 101°
2026-05-05 23:15 41.01988 -74.00033 3941 ft 194 kts 117°
2026-05-05 23:15 41.01340 -73.98445 3777 ft 198 kts 132°
2026-05-05 23:15 41.00475 -73.97039 3516 ft 197 kts 134°
2026-05-05 23:15 40.99522 -73.95793 3252 ft 189 kts 154°
2026-05-05 23:16 40.98344 -73.95108 3012 ft 182 kts 170°
2026-05-05 23:16 40.97141 -73.94928 2865 ft 169 kts 188°
2026-05-05 23:16 40.96006 -73.95195 2639 ft 164 kts 203°
2026-05-05 23:16 40.94990 -73.95867 2398 ft 164 kts 216°
2026-05-05 23:17 40.94049 -73.96644 2175 ft 153 kts 212°
2026-05-05 23:17 40.93194 -73.97310 1950 ft 132 kts 214°
2026-05-05 23:17 40.92514 -73.97854 1777 ft 102 kts 214°
2026-05-05 23:17 40.91915 -73.98342 1631 ft 104 kts 214°
2026-05-05 23:18 40.91346 -73.98966 1478 ft 107 kts 223°
2026-05-05 23:18 40.90794 -73.99612 1325 ft 107 kts 217°
2026-05-05 23:18 40.90212 -74.00257 1175 ft 111 kts 220°
2026-05-05 23:18 40.89629 -74.00926 1021 ft 111 kts 221°
2026-05-05 23:19 40.89057 -74.01578 885 ft 108 kts 220°
2026-05-05 23:19 40.88506 -74.02199 739 ft 101 kts 221°
2026-05-05 23:19 40.87989 -74.02804 604 ft 95 kts 221°
2026-05-05 23:19 40.87499 -74.03352 468 ft 93 kts 219°
2026-05-05 23:20 40.86983 -74.03929 380 ft 103 kts 219°
2026-05-05 23:20 40.86421 -74.04551 275 ft 107 kts 222°
2026-05-05 23:20 40.85899 -74.05212 97 ft 99 kts 225°
2026-05-05 23:20 40.85499 -74.05826 12 ft 77 kts 229°
2026-05-05 23:21 40.85236 -74.06203 10 ft 35 kts 227°
2026-05-05 23:21 40.85171 -74.06319 12 ft 6 kts 266°
2026-05-05 23:21 40.85181 -74.06358 13 ft 1 kts 303°
2026-05-05 23:21 40.85210 -74.06392 13 ft 6 kts 317°
2026-05-05 23:22 40.85224 -74.06421 14 ft 3 kts 284°
2026-05-05 23:22 40.85227 -74.06462 14 ft 7 kts 288°
2026-05-05 23:22 40.85267 -74.06514 12 ft 9 kts 322°
2026-05-05 23:22 40.85284 -74.06532 11 ft 0 kts 319°